Regional Weather Roundup
Issued by NWS

Home | Current Version | Previous Version | Text Only | Print | Product List | Glossary On
Versions: 1 2 3 4 5 6 7 8 9 10 11 12 13 14 15 16 17 18 19 20 21 22 23 24 25 26 27 28 29 30 31 32 33 34 35 36 37 38 39 40 41 42 43 44 45 46 47 48 49 50
000
ASUS43 KMKX 061900
RWRWI

WISCONSIN REGIONAL WEATHER ROUNDUP
NATIONAL WEATHER SERVICE MILWAUKEE/SULLIVAN WI
200 PM CDT MON JUL 06 2015

NOTE: "FAIR" INDICATES FEW OR NO CLOUDS BELOW 12,000 FEET WITH NO
SIGNIFICANT WEATHER AND/OR OBSTRUCTIONS TO VISIBILITY.

WIZ001-002-006>008-014>016-023>028-062000-
NORTHWEST WISCONSIN

CITY           SKY/WX    TMP DP  RH WIND       PRES   REMARKS
SUPERIOR ARPT  LGT RAIN  60  60  97 CALM      29.93S
ASHLAND        LGT RAIN  59  59 100 N7        29.92R FOG
HAYWARD        RAIN      59  56  89 N13G22    29.91R VSB 1
SIREN          LGT RAIN  60  58  94 NE7       29.92S
CUMBERLAND     RAIN      59  55  88 N18G24    29.88S
RICE LAKE      LGT RAIN  60  58  90 N18G26    29.87R
CHETEK         RAIN      62  61  95 NW17G31   29.84R
LADYSMITH      CLOUDY    73  70  89 SW7       29.82F
EAU CLAIRE     CLOUDY    73  70  90 SW9       29.78F
MENOMONIE      HVY RAIN  66  64  93 NW21G31   29.83R
NEW RICHMOND   LGT RAIN  62  60  93 N16G25    29.90R
OSCEOLA        LGT RAIN  61  61 100 N10G23    29.94R
$$

WIZ003>005-009-010-017-018-062000-
NORTH CENTRAL WISCONSIN

CITY           SKY/WX    TMP DP  RH WIND       PRES   REMARKS
MANITOWISH WTR LGT RAIN  69  69 100 CALM      29.82S
ARBOR VITAE    CLOUDY    72  70  93 SW5       29.82S
WOODRUFF       CLOUDY    72  70  93 SW5       29.82S
RHINELANDER    CLOUDY    72  67  84 SW7       29.82F
EAGLE RIVER    LGT RAIN  70  68  94 S5        29.82S
LAND O LAKES   RAIN      69  67  96 CALM      29.83S
PHILLIPS       DRIZZLE   69  68  96 SW7       29.80F
TOMAHAWK       LGT RAIN  71  67  87 CALM      29.82F
MEDFORD        LGT RAIN  70  68  93 SW3       29.81F
MERRILL        CLOUDY    73  70  89 S6        29.82F
$$

WIZ029-030-035-036-043>047-062000-
CENTRAL WISCONSIN

CITY           SKY/WX    TMP DP  RH WIND       PRES   REMARKS
WAUSAU         LGT RAIN  74  69  85 S8        29.80F
MOSINEE        NOT AVBL
MARSHFIELD     LGT RAIN  75  68  78 SW9       29.81F
STEVENS POINT  CLOUDY    75  69  81 SW8       29.82F
WAUPACA        CLOUDY    80  72  76 S12       29.81F HX  83
WAUTOMA        CLOUDY    81  72  74 S8        29.82F HX  84
WISC RAPIDS    CLOUDY    78  68  71 W6        29.82F HX  80
CAMP DOUGLAS   NOT AVBL
$$

WIZ011>013-019>022-031-037>040-048>050-062000-
NORTHEAST WISCONSIN

CITY           SKY/WX    TMP DP  RH WIND       PRES   REMARKS
ANTIGO         DRIZZLE   71  69  95 S10       29.84F
SHAWANO        CLOUDY    77  71  80 S5        29.83S
OCONTO         CLOUDY    75  75 100 S3        29.81F
STURGEON BAY   CLOUDY    70  63  78 S14       29.85F
GREEN BAY      CLOUDY    78  71  79 SW7       29.82F HX  80
MANITOWOC      NOT AVBL
APPLETON       PTSUNNY   79  68  69 SW14G22   29.84F HX  81
CLINTONVILLE   CLOUDY    79  70  73 SW12G17   29.82F HX  81
OSHKOSH        CLOUDY    80  69  69 S13       29.81F HX  83
$$

WIZ032>034-041-042-053>061-062000-
SOUTHWEST WISCONSIN

CITY           SKY/WX    TMP DP  RH WIND       PRES   REMARKS
LA CROSSE      CLOUDY    76  68  76 SW6       29.82R
SPARTA         LGT RAIN  77  67  71 SW3       29.82S
VIROQUA        CLOUDY    74  68  81 SW8       29.84S
BOSCOBEL       CLOUDY    79  70  74 VRB7      29.83S HX  82
PRAIRIE DU CHI CLOUDY    76  68  76 S3        29.83F
PLATTEVILLE    CLOUDY    76  71  83 S12       29.86R
$$

WIZ056-057-062-063-064-067-068-062000-
SOUTH CENTRAL WISCONSIN

CITY           SKY/WX    TMP DP  RH WIND       PRES   REMARKS
REEDSBURG      CLOUDY    78  71  80 SW5       29.82S HX  80
BARABOO/DELLS  CLOUDY    78  69  73 S5        29.82F HX  80
LONE ROCK      NOT AVBL
MINERAL POINT  CLOUDY    79  72  78 S13       29.87R HX  82
MADISON        CLOUDY    76  70  82 S10       29.82F
MIDDLETON      CLOUDY    77  72  83 SE9       29.83F
WATERTOWN      CLOUDY    74  74 100 SE8       29.85F
MONROE         CLOUDY    75  70  83 SE12      29.85F
JANESVILLE     CLOUDY    77  73  88 SE14      29.87F
$$

WIZ051-052-058>065-066-070>072-062000-
SOUTHEAST WISCONSIN

CITY           SKY/WX    TMP DP  RH WIND       PRES   REMARKS
MILWAUKEE      LGT RAIN  75  70  84 SW7       29.90R
WAUKESHA       NOT AVBL
MILWAUKEE/TIMM MOSUNNY   75  68  78 SW7       29.90F
RACINE         RAIN      75  68  78 SW9G21    29.91F
BURLINGTON     CLOUDY    73  70  90 SW3       29.91F
KENOSHA        TSTM      72  67  84 W10       29.90F
FOND DU LAC    LGT RAIN  75  71  87 S9        29.83F
SHEBOYGAN      CLOUDY    75  68  78 S16       29.86F HAZE
WEST BEND      CLOUDY    77  70  78 SW7       29.88F
JUNEAU         CLOUDY    74  70  89 SE6       29.85F
$$

LSZ147-162-062000-
LAKE SUPERIOR

STATION/POSITION TIME  TEMP    WIND        PRES    WAVE
                       AIR SEA DIR/SP/G            HT/PER
                 (UTC) (F)     (DEG/KT/KT) (MB)    (FT/S)
W MID LAKE BUOY  1750   47 39  350/  8/ 10 1012.4R   0
DEVILS ISLAND    1800   59      70/  9/ 11 1012.3F
PORT WING        1801   61      60/  5/  9 1012.9R
SAXON HARBOR     1800   60      10/ 16/ 18 1012.2
$$

LMZ867-665-643>646-062000-
LAKE MICHIGAN

STATION/POSITION TIME  TEMP    WIND        PRES    WAVE
                       AIR SEA DIR/SP/G            HT/PER
                 (UTC) (F)     (DEG/KT/KT) (MB)    (FT/S)
CHAMBERS ISLAND  1800   74     150/  4/ 11 1010.5F
S GREEN BAY BUOY 1800   72 69  190/  4/  6 1011.7
N MID LAKE BUOY  1750   60 55  200/ 16/ 17 1012.0R   3/ 4
NORTHPORT PIER   1820   63     160/  9/ 18 1010.8F
SISTER BAY       1844   68     170/ 11/ 14   N/A
ALGOMA LAKESHORE 1811          220/ 12/ 14   N/A
KEWAUNEE LAKESHO 1800   61     180/ 13/ 15 1011.1F
SHEBOYGAN LAKESH 1800   62     170/ 20/ 22 1011.8F
PORT WASHINGTON  1820   68     180/ 11/ 15 1012.9F
ATWATER BUOY     1800   65 59  160/ 14/ 17 1013.4F
MILWAUKEE LAKESH 1800   66     150/ 18/ 20   N/A
KENOSHA   LAKESH 1800   67     170/ 10/ 13 1012.5F
$$

TC  - TEMPERATURE IN CELSIUS
VSB - VISIBILITY IN STATUTE MILES
WCI - WIND CHILL INDEX
HX  - HEAT INDEX




USA.gov is the U.S. government's official web portal to all federal, state and local government web resources and services.